Regional Weather Roundup
Issued by NWS

Home | Current Version | Previous Version | Text Only | Print | Product List | Glossary On
Versions: 1 2 3 4 5 6 7 8 9 10 11 12 13 14 15 16 17 18 19 20 21 22 23 24 25 26 27
000
ASUS43 KDMX 260107
RWRIA

WEATHER ROUNDUP FOR IOWA
NATIONAL WEATHER SERVICE DES MOINES IA
800 PM CDT SAT OCT 25 2014

NOTE: "FAIR" INDICATES FEW OR NO CLOUDS BELOW 12,000 FEET WITH NO
SIGNIFICANT WEATHER AND/OR OBSTRUCTIONS TO VISIBILITY.

* - THESE STATIONS ARE NOT NWS STATIONS...THUS NOT UNDER NWS
QUALITY CONTROL.  THEY ALSO DO NOT REPORT WEATHER SUCH
AS PRECIPITATION OR FOG.

IAZ001>003-012>014-020>022-031>034-043>046-260200-
   NORTHWEST IOWA

CITY           SKY/WX    TMP DP  RH WIND       PRES   REMARKS
CARROLL *      CLEAR     46  39  76 CALM      30.07R
CHEROKEE *     CLEAR     54  36  50 NE3       30.07R
DENISON *      CLEAR     52  39  62 CALM      30.05R
LE MARS *      CLEAR     50  41  71 CALM      30.07R
ORANGE CITY *  CLEAR     59  30  33 E5        30.07S
SHELDON *      CLEAR     50  36  57 NE6       30.06S
SIOUX CITY     CLEAR     59  37  44 E6        30.06R
SPENCER        CLEAR     50  33  52 CALM      30.08S
STORM LAKE *   CLEAR     55  36  47 E6        30.09R
$$

IAZ055>058-069>071-079>083-090>094-260200-
   SOUTHWEST IOWA

CITY           SKY/WX    TMP DP  RH WIND       PRES   REMARKS
AUDUBON *      CLEAR     48  39  71 CALM      30.08R
CLARINDA *     CLEAR     59  46  63 NE3       30.05S
COUNCIL BLFS * CLEAR     63  43  48 E8        30.03S
CRESTON *      CLEAR     57  43  58 E7        30.07R
HARLAN  *      CLEAR     55  39  54 CALM      30.09R
LAMONI         CLEAR     59  44  57 NE6       30.06R
RED OAK *      CLEAR     57  45  62 NE6       30.04S
SHENANDOAH *   CLEAR     57  46  67 NE7       30.04R
$$

IAZ047>049-059>061-072>074-084-260200-
   CENTRAL IOWA

CITY           SKY/WX    TMP DP  RH WIND       PRES   REMARKS
AMES           CLEAR     51  40  65 CALM      30.06S
ANKENY *       CLEAR     50  41  71 CALM      30.06S
CHARITON *     CLEAR     61  39  44 NE5       30.06S
DES MOINES     CLEAR     60  38  43 NE6       30.06S
GRINNELL*      CLEAR     55  36  47 CALM      30.06S
KNOXVILLE *    CLEAR     61  37  41 CALM      30.05R
MARSHALLTOWN   CLEAR     53  36  52 NW3       30.06R
PELLA *        CLEAR     59  37  44 N3        30.07S
PERRY *          N/A     55  37  50 NE3       30.06S
$$

IAZ004>006-015-016-023>025-035-036-260200-
   NORTH CENTRAL IOWA

CITY           SKY/WX    TMP DP  RH WIND       PRES   REMARKS
ALGONA *       CLEAR     54  34  47 N6        30.08S
CLARION *      CLEAR     50  36  57 N5        30.08R
ESTHERVILLE    CLEAR     45  30  55 N8        30.08S
FORT DODGE *   CLEAR     52  36  54 N3        30.08S
MASON CITY     CLEAR     48  34  58 NW7       30.08S
FOREST CITY *  CLEAR     45  36  70 CALM      30.08R
IOWA FALLS *     N/A     48  36  61 W5        30.08R
$$

IAZ007>011-017>019-026>030-037>042-050>054-066-260200-
   NORTHEAST IOWA

CITY           SKY/WX    TMP DP  RH WIND       PRES   REMARKS
CEDAR RAPIDS   CLEAR     51  37  58 NW7       30.03S
CHARLES CITY * CLEAR     52  32  46 NW8       30.06S
CLINTON *      CLEAR     52  34  50 NW8       30.03S
DECORAH *      CLEAR     55  30  38 W5        30.03R
DUBUQUE        CLEAR     52  32  46 NW8       30.02R
MONTICELLO *   CLEAR     52  36  54 NW8       30.03R
OELWEIN *      CLEAR     48  36  61 NW7       30.05S
WATERLOO       CLEAR     49  35  58 NW6       30.05R
$$

IAZ064-065-067-068-078-260200-
   EAST CENTRAL IOWA

CITY           SKY/WX    TMP DP  RH WIND       PRES   REMARKS
DAVENPORT      CLEAR     50  35  56 W8        30.03R
IOWA CITY      CLEAR     50  41  71 NW6       30.05R
MT. PLEASANT * CLEAR     55  41  58 NW3       30.05R
MUSCATINE *    CLEAR     59  36  41 CALM      30.04R
QUAD CITIES    CLEAR     54  36  50 W7        30.02R
$$

IAZ062-063-075>077-085>089-095>099-260200-
   SOUTHEAST IOWA

CITY           SKY/WX    TMP DP  RH WIND       PRES   REMARKS
BURLINGTON     CLEAR     58  41  53 NW6       30.04R HAZE
FAIRFIELD *    CLEAR     57  37  47 NW6       30.05S
FORT MADISON * CLEAR     61  43  51 CALM      30.05S
KEOKUK *       CLEAR     63  41  45 N6        30.03S
OSKALOOSA *      N/A     57  37  47 N5        30.06S
CENTERVILLE *  CLEAR     48  45  87 N3        30.07S
OTTUMWA        CLEAR     55  38  52 CALM      30.05R
WASHINGTON *   CLEAR     54  41  62 NW6       30.05R
$$

ABBREVIATIONS USED IN REMARKS
   TC - TEMPERATURES IN CELSIUS
  WCI - WIND CHILL INDEX
   HX - HEAT INDEX
  VSB - VISIBILITY
$$




USA.gov is the U.S. government's official web portal to all federal, state and local government web resources and services.